Location: Unspecified
(40.7945°N, 0.0000°E)
Time: 03:40:27
(UTC+00:00)

Altair - Pass Details

Date: 30 January 2021
Orbit: 1501 x 1682 km, 47.2° (Epoch: 01 March)

Event Time Altitude Azimuth Distance (km) Brightness Sun altitude
Rises 10:46:50 0° 297° (WNW) 4,939 9.7 28.3°
Reaches altitude 10° 10:50:18 10° 290° (WNW) 3,947 9.4 28.6°
Maximum altitude 10:59:16 38° 228° (SW) 2,372 9.1 29.2°
Drops below altitude 10° 11:08:04 10° 165° (SSE) 3,861 11.3 29.7°
Sets 11:11:27 0° 157° (SSE) 4,820 11.3 29.9°
